Moab, UT

8:29 AM MDT on June 24, 2017 (GMT -0600)
Canyonlands

Weather History for KCNY - June, 2014

Change the Weather History Date:

Thursday, June 26, 2014

  Actual Average Record
Temperature  
Mean Temperature 81 °F 76 °F  
Max Temperature 95 °F 93 °F 107 °F (1970)
Min Temperature 66 °F 60 °F 44 °F (1975)
Degree Days  
Heating Degree Days 0 0  
Month to date heating degree days 0 15  
Since 1 June heating degree days 0 15  
Since 1 July heating degree days 5811 5575  
Cooling Degree Days 16 12  
Month to date cooling degree days 238 206  
Year to date cooling degree days 337 270  
Since 1 June cooling degree days 238 206  
Growing Degree Days 32 (Base 50)    
Moisture  
Dew Point 22 °F    
Average Humidity 17    
Maximum Humidity 27    
Minimum Humidity 6    
Precipitation  
Precipitation T in 0.02 in 0.19 in (2005)
Month to date precipitation T 0.44  
Year to date precipitation 2.38 3.64  
Sea Level Pressure  
Sea Level Pressure 29.59 in    
Wind  
Wind Speed 15 mph (SW)    
Max Wind Speed 35 mph    
Max Gust Speed 48 mph    
Visibility 10 miles    
Events      
T = Trace of Precipitation, MM = Missing Value Source: NWS Daily Summary

Daily Weather History Graph

Daily Weather History Graph

Search for Another Location

Airport or City:

Trip Planner

Search our weather history database for the weather conditions in past years. The results will help you decide how hot, cold, wet, or windy it might be!

Date:

Astronomy

Jun. 26, 2014 Rise Set
Actual Time 5:55 AM MDT 8:47 PM MDT
Civil Twilight 5:23 AM MDT 9:19 PM MDT
Nautical Twilight 4:43 AM MDT 10:00 PM MDT
Astronomical Twilight 3:57 AM MDT 10:46 PM MDT
Moon 5:37 AM MDT (6/26) 8:12 PM MDT (6/26)
Length of Visible Light 15h 56m
Length of Day
14h 52m
Waning Crescent, 0% of the Moon is Illuminated
Jun 26
Waning Crescent
Jun 27
New
Jul 5
First Quarter
Jul 12
Full
Jul 18
Last Quarter

Hourly Weather History & Observations

Time (MDT) Temp. Dew Point Humidity Pressure Visibility Wind Dir Wind Speed Gust Speed Precip Events Conditions
12:53 AM 75.2 °F 15.8 °F 11% 29.82 in 10.0 mi Calm Calm - N/A   Clear
1:53 AM 77.0 °F 15.1 °F 10% 29.60 in 10.0 mi Calm Calm - N/A   Clear
2:53 AM 72.0 °F 15.1 °F 11% 29.61 in 10.0 mi ENE 4.6 mph - N/A   Clear
3:53 AM 70.0 °F 16.0 °F 13% 29.62 in 10.0 mi Calm Calm - N/A   Clear
4:53 AM 69.1 °F 17.1 °F 14% 29.62 in 10.0 mi Calm Calm - N/A   Clear
5:53 AM 68.0 °F 18.0 °F 15% 29.63 in 10.0 mi Calm Calm - N/A   Clear
6:53 AM 68.0 °F 18.0 °F 15% 29.64 in 10.0 mi East 4.6 mph - N/A   Clear
7:53 AM 78.1 °F 23.0 °F 13% 29.64 in 10.0 mi ESE 9.2 mph - N/A   Clear
8:53 AM 84.0 °F 21.9 °F 10% 29.63 in 10.0 mi South 11.5 mph - N/A   Clear
9:53 AM 88.0 °F 21.9 °F 9% 29.62 in 10.0 mi SW 16.1 mph - N/A   Clear
10:53 AM 89.1 °F 21.0 °F 8% 29.60 in 10.0 mi SSW 12.7 mph 21.9 mph N/A   Clear
11:53 AM 91.9 °F 21.9 °F 8% 29.57 in 10.0 mi SSW 21.9 mph 27.6 mph N/A   Clear
12:53 PM 91.9 °F 23.0 °F 8% 29.55 in 10.0 mi SW 18.4 mph 27.6 mph N/A   Clear
1:53 PM 93.0 °F 23.0 °F 8% 29.52 in 10.0 mi SSW 17.3 mph 26.5 mph N/A   Clear
2:53 PM 95.0 °F 19.9 °F 7% 29.50 in 10.0 mi SW 24.2 mph 33.4 mph N/A   Clear
3:53 PM 93.9 °F 21.9 °F 7% 29.49 in 10.0 mi SW 27.6 mph 33.4 mph N/A   Clear
4:53 PM 91.9 °F 23.0 °F 8% 29.49 in 10.0 mi SSW 21.9 mph 33.4 mph N/A   Clear
5:53 PM 90.0 °F 24.1 °F 9% 29.47 in 10.0 mi WSW 16.1 mph 27.6 mph N/A   Clear
6:53 PM 88.0 °F 15.1 °F 7% 29.46 in 10.0 mi WSW 31.1 mph 42.6 mph 0.00 in   Clear
7:53 PM 84.9 °F 17.1 °F 8% 29.50 in 10.0 mi WSW 25.3 mph 35.7 mph N/A   Scattered Clouds
8:53 PM 82.0 °F 26.1 °F 13% 29.53 in 10.0 mi West 24.2 mph - N/A   Clear
9:53 PM 79.0 °F 30.0 °F 17% 29.57 in 10.0 mi West 28.8 mph 38.0 mph N/A   Clear
10:45 PM 75.0 °F 35.1 °F 23% 29.80 in 10.0 mi NW 11.5 mph - N/A   Scattered Clouds
10:53 PM 75.0 °F 35.1 °F 23% 29.60 in 10.0 mi NW 15.0 mph - N/A   Partly Cloudy
11:53 PM 72.0 °F 35.1 °F 26% 29.60 in 10.0 mi WNW 9.2 mph - N/A   Partly Cloudy